DB0RV-13 Weather Reports


Display with metric or nautical units.
time (UTC)temp
F
wind
direction
speed
MPH
gust
MPH
rain 1hr
in
rain 24hr
in
rain mn
in
humidity
%
barometer
mb
20260503041001 48 0 0.0 0.0 0.00 0.00 0.00 75 1015.2
20260503040502 48 316 2.0 0.0 0.00 0.00 0.00 73 1015.1
20260503040001 48 330 2.0 0.0 0.00 0.00 0.00 74 1015.2
20260503035502 48 320 2.0 0.0 0.00 0.00 0.00 73 1015.3
20260503035001 49 0 0.0 0.0 0.00 0.00 0.00 73 1015.3
20260503034501 48 0 0.0 0.0 0.00 0.00 0.00 74 1015.3
20260503034002 48 117 1.0 0.0 0.00 0.00 0.00 73 1015.1
20260503033501 49 146 1.0 0.0 0.00 0.00 0.00 73 1015.2
20260503033001 49 0 0.0 0.0 0.00 0.00 0.00 73 1015.3
20260503032501 49 0 0.0 0.0 0.00 0.00 0.00 73 1015.2
20260503032002 49 161 1.0 0.0 0.00 0.00 0.00 71 1015.3
20260503031501 51 189 2.0 0.0 0.00 0.00 0.00 70 1015.2
20260503031001 51 195 2.0 0.0 0.00 0.00 0.00 70 1015.2
20260503030502 51 0 0.0 0.0 0.00 0.00 0.00 69 1015.2
20260503030001 51 329 1.0 0.0 0.00 0.00 0.00 68 1015.3
20260503025502 50 17 1.0 0.0 0.00 0.00 0.00 68 1015.2
20260503025002 49 131 0.0 0.0 0.00 0.00 0.00 70 1015.4
20260503024501 51 130 1.0 0.0 0.00 0.00 0.00 68 1015.3
20260503024001 50 318 0.0 0.0 0.00 0.00 0.00 69 1015.3
20260503023001 51 185 1.0 0.0 0.00 0.00 0.00 67 1015.5
20260503022501 50 181 1.0 0.0 0.00 0.00 0.00 68 1015.5
20260503022002 51 199 2.0 0.0 0.00 0.00 0.00 67 1015.5
20260503021501 51 187 2.0 0.0 0.00 0.00 0.00 66 1015.6
20260503021001 51 208 1.0 0.0 0.00 0.00 0.00 66 1015.6
20260503020502 51 0 0.0 0.0 0.00 0.00 0.00 67 1015.6
20260503020002 52 266 1.0 0.0 0.00 0.00 0.00 64 1015.5
20260503015501 51 225 2.0 0.0 0.00 0.00 0.00 66 1015.6
20260503015002 51 260 2.0 0.0 0.00 0.00 0.00 66 1015.7
20260503014502 50 328 1.0 0.0 0.00 0.00 0.00 70 1015.5
20260503014001 50 315 3.0 0.0 0.00 0.00 0.00 70 1015.5
20260503013502 50 337 2.0 0.0 0.00 0.00 0.00 71 1015.5
20260503013002 50 317 3.0 0.0 0.00 0.00 0.00 70 1015.5
20260503012501 52 331 2.0 0.0 0.00 0.00 0.00 66 1015.6
20260503012002 52 43 2.0 0.0 0.00 0.00 0.00 66 1015.5
20260503011502 52 47 1.0 0.0 0.00 0.00 0.00 65 1015.5
20260503011001 52 109 2.0 0.0 0.00 0.00 0.00 64 1015.6
20260503010502 53 83 2.0 0.0 0.00 0.00 0.00 63 1015.5
20260503010002 53 44 1.0 0.0 0.00 0.00 0.00 62 1015.7
20260503005501 53 57 1.0 0.0 0.00 0.00 0.00 62 1015.6
20260503005002 53 56 2.0 0.0 0.00 0.00 0.00 62 1015.6
20260503004502 54 85 1.0 0.0 0.00 0.00 0.00 60 1015.6
20260503004001 54 0 0.0 0.0 0.00 0.00 0.00 60 1015.6
20260503003502 55 33 0.0 0.0 0.00 0.00 0.00 60 1015.6
20260503003002 55 24 2.0 0.0 0.00 0.00 0.00 59 1015.6
20260503002501 55 42 1.0 0.0 0.00 0.00 0.00 60 1015.6
20260503002002 54 332 1.0 0.0 0.00 0.00 0.00 62 1015.6
20260503001502 54 336 2.0 0.0 0.00 0.00 0.00 64 1015.7
20260503001001 53 335 3.0 0.0 0.00 0.00 0.00 65 1015.6
20260503000502 53 331 3.0 0.0 0.00 0.00 0.00 65 1015.6
20260503000002 55 330 3.0 0.0 0.00 0.00 0.00 60 1015.7
20260502235501 54 23 3.0 0.0 0.00 0.00 0.00 63 1015.7
20260502235001 54 43 2.0 0.0 0.00 0.00 0.00 64 1015.7
20260502234502 54 42 3.0 0.0 0.00 0.00 0.00 63 1015.7
20260502234001 54 41 3.0 0.0 0.00 0.00 0.00 64 1015.7
20260502233502 54 56 3.0 0.0 0.00 0.00 0.00 64 1015.7
20260502233002 54 50 2.0 0.0 0.00 0.00 0.00 64 1015.7
20260502232501 54 57 2.0 0.0 0.00 0.00 0.00 63 1015.7
20260502232002 54 59 3.0 0.0 0.00 0.00 0.00 62 1015.8
20260502231502 55 62 2.0 0.0 0.00 0.00 0.00 61 1015.8
20260502231001 55 83 1.0 0.0 0.00 0.00 0.00 62 1015.8
20260502230502 55 55 1.0 0.0 0.00 0.00 0.00 62 1015.8
20260502230002 55 42 1.0 0.0 0.00 0.00 0.00 61 1015.9
20260502225501 55 41 0.0 0.0 0.00 0.00 0.00 63 1015.9
20260502225002 55 133 1.0 0.0 0.00 0.00 0.00 62 1015.9
20260502224502 57 180 4.0 0.0 0.00 0.00 0.00 57 1015.9
20260502224001 56 61 2.0 0.0 0.00 0.00 0.00 60 1015.9
20260502223502 57 100 2.0 0.0 0.00 0.00 0.00 58 1015.8
20260502223002 58 148 1.0 0.0 0.00 0.00 0.00 55 1016.0
20260502222501 59 145 0.0 0.0 0.00 0.00 0.00 51 1015.9
20260502222002 59 217 0.0 0.0 0.00 0.00 0.00 51 1016.1
20260502221502 58 0 0.0 0.0 0.00 0.00 0.00 54 1015.9
20260502221001 58 343 0.0 0.0 0.00 0.00 0.00 55 1015.9
20260502220502 58 309 3.0 0.0 0.00 0.00 0.00 55 1015.9
20260502220002 58 338 3.0 0.0 0.00 0.00 0.00 56 1015.9
20260502215501 57 328 3.0 0.0 0.00 0.00 0.00 60 1016.0
20260502215002 56 334 3.0 0.0 0.00 0.00 0.00 61 1015.9
20260502214502 57 335 4.0 0.0 0.00 0.00 0.00 59 1015.8
20260502214001 57 346 2.0 0.0 0.00 0.00 0.00 59 1015.7
20260502213502 57 326 1.0 0.0 0.00 0.00 0.00 58 1015.9
20260502213002 56 38 3.0 0.0 0.00 0.00 0.00 61 1015.9
20260502212501 58 49 3.0 0.0 0.00 0.00 0.00 57 1015.8
20260502212002 59 58 4.0 0.0 0.00 0.00 0.00 55 1015.9
20260502211502 60 77 2.0 0.0 0.00 0.00 0.00 52 1016.0
20260502211001 62 62 2.0 0.0 0.00 0.00 0.00 50 1016.0
20260502210502 62 0 0.0 0.0 0.00 0.00 0.00 50 1016.0
20260502210002 60 56 1.0 0.0 0.00 0.00 0.00 52 1016.0
20260502205501 61 321 2.0 0.0 0.00 0.00 0.00 52 1016.0
20260502205001 61 12 1.0 0.0 0.00 0.00 0.00 52 1016.1
20260502204502 60 23 1.0 0.0 0.00 0.00 0.00 54 1016.2
20260502204001 60 325 3.0 0.0 0.00 0.00 0.00 53 1016.1
20260502203501 60 324 0.0 0.0 0.00 0.00 0.00 52 1016.2
20260502203002 62 62 2.0 0.0 0.00 0.00 0.00 49 1016.2
20260502202501 63 9 2.0 0.0 0.00 0.00 0.00 47 1016.1
20260502202002 63 58 1.0 0.0 0.00 0.00 0.00 47 1016.2
20260502201502 63 337 2.0 0.0 0.00 0.00 0.00 48 1016.2
20260502201001 63 321 3.0 0.0 0.00 0.00 0.00 48 1016.2
20260502200502 64 0 0.0 0.0 0.00 0.00 0.00 47 1016.4
20260502200002 64 332 2.0 0.0 0.00 0.00 0.00 48 1016.4
20260502195501 63 321 2.0 0.0 0.00 0.00 0.00 51 1016.4
20260502195002 64 77 2.0 0.0 0.00 0.00 0.00 47 1016.3
20260502194504 66 311 2.0 0.0 0.00 0.00 0.00 45 1016.3
20260502194002 65 295 3.0 0.0 0.00 0.00 0.00 47 1016.3
20260502193502 63 317 3.0 0.0 0.00 0.00 0.00 51 1016.3
20260502193002 65 312 3.0 0.0 0.00 0.00 0.00 47 1016.3
20260502192501 65 284 3.0 0.0 0.00 0.00 0.00 44 1016.3
20260502192001 67 299 2.0 0.0 0.00 0.00 0.00 43 1016.3
20260502191502 66 243 3.0 0.0 0.00 0.00 0.00 44 1016.3
20260502191002 67 240 2.0 0.0 0.00 0.00 0.00 44 1016.2
20260502190502 67 244 3.0 0.0 0.00 0.00 0.00 44 1016.2
20260502190002 67 242 3.0 0.0 0.00 0.00 0.00 43 1016.2
20260502185501 68 240 3.0 0.0 0.00 0.00 0.00 41 1016.2
20260502185002 69 244 2.0 0.0 0.00 0.00 0.00 37 1016.1
20260502184501 70 210 2.0 0.0 0.00 0.00 0.00 35 1016.1
20260502184002 70 202 2.0 0.0 0.00 0.00 0.00 34 1016.1
20260502183501 70 209 3.0 0.0 0.00 0.00 0.00 34 1016.0
20260502183001 71 73 2.0 0.0 0.00 0.00 0.00 33 1015.9
20260502182502 72 86 3.0 0.0 0.00 0.00 0.00 30 1016.0
20260502182001 72 103 2.0 0.0 0.00 0.00 0.00 30 1016.0
20260502181502 72 109 3.0 0.0 0.00 0.00 0.00 29 1016.0
20260502181002 73 110 2.0 0.0 0.00 0.00 0.00 29 1016.0
20260502180502 73 114 1.0 0.0 0.00 0.00 0.00 29 1015.9
20260502170501 74 133 3.0 0.0 0.00 0.00 0.00 29 1016.3
20260502164001 75 107 3.0 0.0 0.00 0.00 0.00 29 1016.3
20260502163502 75 135 2.0 0.0 0.00 0.00 0.00 28 1016.5
20260502163001 75 105 4.0 0.0 0.00 0.00 0.00 29 1016.5
20260502162502 74 48 2.0 0.0 0.00 0.00 0.00 29 1016.6
20260502162001 75 75 2.0 0.0 0.00 0.00 0.00 28 1016.8
20260502161502 76 340 3.0 0.0 0.00 0.00 0.00 27 1016.8
20260502161001 75 278 2.0 0.0 0.00 0.00 0.00 27 1016.8
20260502160502 75 333 3.0 0.0 0.00 0.00 0.00 27 1016.8
20260502152002 75 278 1.0 0.0 0.00 0.00 0.00 26 1017.3
20260502151501 75 343 1.0 0.0 0.00 0.00 0.00 27 1017.4
20260502151001 75 65 3.0 0.0 0.00 0.00 0.00 27 1017.5
20260502150502 74 277 3.0 0.0 0.00 0.00 0.00 26 1017.5
20260502130502 73 186 4.0 0.0 0.00 0.00 0.00 32 1019.2
20260502123503 71 241 4.0 0.0 0.00 0.00 0.00 35 1019.4
20260502123001 72 238 3.0 0.0 0.00 0.00 0.00 34 1019.3
20260502122514 71 112 2.0 0.0 0.00 0.00 0.00 34 1019.4
20260502122002 71 49 5.0 0.0 0.00 0.00 0.00 32 1019.5
20260502121503 72 164 4.0 0.0 0.00 0.00 0.00 32 1019.6
20260502121001 71 157 2.0 0.0 0.00 0.00 0.00 34 1019.8
20260502120502 71 242 3.0 0.0 0.00 0.00 0.00 36 1019.9
20260502115502 70 185 3.0 0.0 0.00 0.00 0.00 36 1019.8
20260502114502 70 150 4.0 0.0 0.00 0.00 0.00 38 1020.0
20260502114016 70 169 6.0 0.0 0.00 0.00 0.00 38 1020.2
20260502113505 71 205 3.0 0.0 0.00 0.00 0.00 39 1020.2
20260502113001 69 0 0.0 0.0 0.00 0.00 0.00 40 1020.4
20260502112502 70 205 3.0 0.0 0.00 0.00 0.00 38 1020.4
20260502112003 71 202 3.0 0.0 0.00 0.00 0.00 40 1020.4
20260502111502 69 188 2.0 0.0 0.00 0.00 0.00 40 1020.4
20260502111007 69 208 2.0 0.0 0.00 0.00 0.00 39 1020.5
20260502110501 68 262 1.0 0.0 0.00 0.00 0.00 41 1020.6
20260502110002 68 253 5.0 0.0 0.00 0.00 0.00 43 1020.6
20260502105502 68 130 2.0 0.0 0.00 0.00 0.00 42 1020.6
20260502105002 68 214 2.0 0.0 0.00 0.00 0.00 44 1020.6
20260502104502 68 156 2.0 0.0 0.00 0.00 0.00 43 1020.8
20260502104002 68 104 2.0 0.0 0.00 0.00 0.00 42 1020.7
20260502103502 67 210 4.0 0.0 0.00 0.00 0.00 43 1020.9
20260502103001 67 238 5.0 0.0 0.00 0.00 0.00 44 1020.9
20260502102504 67 274 2.0 0.0 0.00 0.00 0.00 43 1021.0
20260502102002 67 232 4.0 0.0 0.00 0.00 0.00 44 1021.1
20260502101502 66 241 5.0 0.0 0.00 0.00 0.00 45 1021.1
20260502101002 66 184 2.0 0.0 0.00 0.00 0.00 46 1021.0
20260502100502 66 249 3.0 0.0 0.00 0.00 0.00 46 1021.2
20260502091502 64 244 6.0 0.0 0.00 0.00 0.00 49 1021.7
20260502091002 63 231 1.0 0.0 0.00 0.00 0.00 48 1021.7
20260502090502 62 206 5.0 0.0 0.00 0.00 0.00 50 1021.7
20260502071501 54 190 5.0 0.0 0.00 0.00 0.00 58 1022.1
20260502071002 54 198 3.0 0.0 0.00 0.00 0.00 58 1022.2
20260502070501 54 205 3.0 0.0 0.00 0.00 0.00 57 1022.2
20260502070002 53 166 2.0 0.0 0.00 0.00 0.00 57 1022.3
20260502065502 54 180 2.0 0.0 0.00 0.00 0.00 56 1022.1
20260502065001 52 199 1.0 0.0 0.00 0.00 0.00 57 1022.2
20260502064502 51 185 0.0 0.0 0.00 0.00 0.00 56 1022.2
20260502064002 51 173 0.0 0.0 0.00 0.00 0.00 57 1022.2
20260502063503 50 148 1.0 0.0 0.00 0.00 0.00 58 1022.3
20260502063001 49 0 0.0 0.0 0.00 0.00 0.00 61 1022.2
20260502062502 48 129 0.0 0.0 0.00 0.00 0.00 63 1022.3
20260502062001 47 92 2.0 0.0 0.00 0.00 0.00 63 1022.2
20260502061502 47 133 2.0 0.0 0.00 0.00 0.00 63 1022.2
20260502061002 47 69 1.0 0.0 0.00 0.00 0.00 65 1022.1
20260502060502 46 70 1.0 0.0 0.00 0.00 0.00 66 1022.2
20260502060002 46 45 1.0 0.0 0.00 0.00 0.00 65 1022.2
20260502055501 45 41 2.0 0.0 0.00 0.00 0.00 67 1022.1
20260502055002 44 43 1.0 0.0 0.00 0.00 0.00 69 1022.1
20260502054501 43 40 2.0 0.0 0.00 0.00 0.00 69 1022.1
20260502054002 43 42 2.0 0.0 0.00 0.00 0.00 69 1022.1
20260502053501 44 35 2.0 0.0 0.00 0.00 0.00 69 1022.1
20260502053002 44 119 3.0 0.0 0.00 0.00 0.00 69 1022.1
20260502052501 44 72 2.0 0.0 0.00 0.00 0.00 68 1022.0
20260502052003 44 51 1.0 0.0 0.00 0.00 0.00 69 1022.1
20260502051502 43 43 2.0 0.0 0.00 0.00 0.00 69 1022.0
20260502051001 43 52 1.0 0.0 0.00 0.00 0.00 69 1022.0
20260502050503 44 32 1.0 0.0 0.00 0.00 0.00 67 1022.0
20260502050002 44 33 2.0 0.0 0.00 0.00 0.00 68 1021.9
20260502045503 44 24 2.0 0.0 0.00 0.00 0.00 68 1021.9
20260502045001 43 347 2.0 0.0 0.00 0.00 0.00 69 1021.9
20260502044502 44 327 2.0 0.0 0.00 0.00 0.00 69 1021.9
20260502044002 43 41 2.0 0.0 0.00 0.00 0.00 70 1021.8
20260502043501 42 41 2.0 0.0 0.00 0.00 0.00 70 1021.8
20260502043002 42 337 1.0 0.0 0.00 0.00 0.00 71 1021.9
20260502042501 43 332 2.0 0.0 0.00 0.00 0.00 70 1021.9
20260502042002 43 37 1.0 0.0 0.00 0.00 0.00 71 1021.8
20260502041501 42 64 1.0 0.0 0.00 0.00 0.00 71 1021.7